{"data":{"norad_id":52933,"intl_designator":"2022-071A","name":"SES-22","alt_names":[],"object_type":"PAYLOAD","status":"ACTIVE","operator":null,"country":"SES","launch_date":"2022-06-29","launch_site_code":"AFETR","launch_vehicle":null,"mission":null,"orbit_class":"UNKNOWN","rcs_meters":null,"size_class":null,"mass_kg":null,"dimensions":null,"purposes":["comms"],"wikipedia_slug":null,"has_3d_model":false,"image_url":null,"decayed_at":null,"tle_current":{"epoch":"2026-05-25T03:08:58.672896Z","epoch_age_seconds":61023,"freshness":"FRESH","line1":"1 52933U 22071A   26145.13123464  .00000102  00000+0  00000+0 0  9997","line2":"2 52933   0.0212 286.1822 0001208 130.7227  94.0655  1.00274080  7290","mean_motion":1.0027408,"eccentricity":0.0001208,"inclination_deg":0.0212,"raan_deg":286.1822,"arg_perigee_deg":130.7227,"mean_anomaly_deg":94.0655,"bstar":0,"rev_number":729,"period_min":1436.064035691,"perigee_km":35780.858179748,"apogee_km":35791.045023554,"semimajor_km":42164.088601651,"source":"CELESTRAK","updated_at":"2026-05-25T13:38:14.516756Z"}}}